Home   Weather   Idar-Oberstein   Past weeks

Flag for Germany Past Weather in Idar-Oberstein, Rhineland-Palatinate, Germany — Yesterday and Last 2 Weeks

Now
52 °F

Clear.


Feels Like: 49 °F
Forecast: 55 / 72 °F
Wind: 8 mph from Southwest

Location: Hahn

Current Time: Sep 28, 2016 at 3:49:59 AM

Latest Report: Sep 28, 2016 at 2:50 AM


Visibility: 10 mi

Pressure: 30.36 "Hg

Humidity: 88%

Dew Point: 48 °F

Location of Idar-ObersteinLocation

Past Weather in Idar-Oberstein — Graph

°F

Idar-Oberstein Temperature Yesterday

Maximum temperature yesterday: 68 °F (at 3:50 PM)
Minimum temperature yesterday: 48 °F (at 5:50 AM)
Average temperature yesterday: 57 °F

High & Low Weather Summary for the Past Weeks

 TemperatureHumidityPressure
High82 °F (Sep 13, 1:50 PM)100% (Sep 16, 12:20 AM)30.36 "Hg (Sep 16, 12:20 AM)
Low46 °F (Sep 22, 4:20 AM)34% (Sep 14, 4:50 PM)29.83 "Hg (Sep 15, 6:50 AM)
Average60 °F74%30.10 "Hg
* Reported Sep 13 1:20 AM — Sep 28 1:50 AM, Idar-Oberstein, Weather by CustomWeather, © 2016

Note: Actual official high and low records may vary slightly from our data, if they occured in-between our weather recording intervals... More about our weather records

Advertising

Idar-Oberstein Weather History for the Previous 24 Hours

Scroll right to see more
 ConditionsComfort  
Time TempWeatherWind HumidityBarometerVisibility
1:50 AM
Wed, Sep 28
57 °FClear.3 mph77%30.36 "Hg10 mi
1:20 AM57 °FClear.7 mph77%30.36 "Hg10 mi
12:50 AM55 °FPassing clouds.3 mph82%30.36 "HgN/A
12:20 AM54 °FClear.8 mph82%30.36 "Hg10 mi
11:50 PM
Tue, Sep 27
55 °FClear.8 mph82%30.36 "Hg10 mi
11:20 PM54 °FClear.7 mph82%30.36 "Hg10 mi
10:50 PM54 °FClear.6 mph82%30.36 "Hg10 mi
10:20 PM57 °FClear.3 mph72%30.36 "Hg10 mi
9:50 PM57 °FPassing clouds.5 mph72%30.36 "HgN/A
9:20 PM57 °FClear.5 mph72%30.36 "Hg10 mi
8:50 PM55 °FClear.2 mph77%30.36 "Hg10 mi
8:20 PM59 °FClear.3 mph72%30.36 "Hg10 mi
7:50 PM59 °FClear.3 mph72%30.36 "Hg10 mi
7:20 PM63 °FPassing clouds.3 mph68%30.33 "HgN/A
6:50 PM66 °FPassing clouds.6 mph60%30.33 "HgN/A
6:20 PM68 °FPassing clouds.5 mph56%30.33 "HgN/A
5:50 PM66 °FPassing clouds.3 mph60%30.33 "HgN/A
5:20 PM66 °FPassing clouds.6 mph56%30.33 "HgN/A
4:50 PM66 °FPassing clouds.3 mph56%30.33 "HgN/A
4:20 PM68 °FScattered clouds.7 mph53%30.33 "HgN/A
3:50 PM68 °FPassing clouds.3 mph53%30.33 "HgN/A
3:20 PM66 °FPassing clouds.3 mph56%30.33 "HgN/A
2:50 PM66 °FPassing clouds.3 mph56%30.33 "HgN/A
2:20 PM66 °FPassing clouds.3 mph56%30.33 "HgN/A
1:50 PM66 °FPassing clouds.2 mph56%30.33 "HgN/A
1:20 PM64 °FPassing clouds.6 mph64%30.33 "HgN/A
12:50 PM61 °FPassing clouds.5 mph72%30.33 "HgN/A
12:20 PM63 °FPassing clouds.6 mph68%30.33 "HgN/A
11:50 AM61 °FPassing clouds.6 mph72%30.33 "HgN/A
11:20 AM59 °FPassing clouds.5 mph77%30.33 "HgN/A
10:50 AM57 °FPassing clouds.3 mph77%30.30 "HgN/A
10:20 AM55 °FPassing clouds.2 mph82%30.33 "HgN/A
9:50 AM55 °FSunny.5 mph77%30.30 "Hg10 mi
9:20 AM54 °FPassing clouds.5 mph82%30.30 "HgN/A
8:50 AM52 °FPassing clouds.5 mph88%30.30 "HgN/A
8:20 AM50 °FPassing clouds.3 mph88%30.27 "HgN/A
7:50 AM48 °FPassing clouds.3 mph94%30.27 "HgN/A
7:20 AM50 °FPassing clouds.3 mph88%30.27 "HgN/A
6:50 AM50 °FClear.3 mph88%30.27 "Hg10 mi
6:20 AM50 °FPassing clouds.3 mph94%30.27 "HgN/A
5:50 AM48 °FClear.5 mph94%30.27 "Hg10 mi
5:20 AM50 °FClear.3 mph94%30.24 "Hg10 mi
4:50 AM50 °FPassing clouds.5 mph94%30.24 "HgN/A
4:20 AM50 °FPassing clouds.5 mph94%30.24 "HgN/A
3:50 AM50 °FPassing clouds.3 mph88%30.24 "HgN/A
3:20 AM52 °FClear.2 mph82%30.24 "Hg10 mi
Weather by CustomWeather, © 2016

See weather overviewHow to use our weather pages